DB0OVP-13 Weather Reports


Display with metric or nautical units.
time (UTC)temp
F
wind
direction
speed
MPH
gust
MPH
rain 1hr
in
rain 24hr
in
rain mn
in
humidity
%
barometer
mb
20260505014601 47 0 2.0 2.0 0.00 0.00 0.00 100
20260505013101 49 243 0.0 0.0 0.00 0.00 0.00 100
20260505011601 48 243 0.0 0.0 0.00 0.00 0.00 100
20260505004601 48 243 0.0 0.0 0.00 0.00 0.00 100
20260505003101 47 243 0.0 0.0 0.00 0.00 0.00 100
20260505001601 47 243 0.0 0.0 0.00 0.00 0.00 100
20260504234601 47 243 0.0 0.0 0.00 0.00 0.00 100
20260504233101 47 243 0.0 0.0 0.00 0.00 0.00 100
20260504231601 48 243 0.0 0.0 0.00 0.00 0.00 100
20260504224602 48 243 0.0 0.0 0.00 0.00 0.00 100
20260504223102 49 243 0.0 0.0 0.00 0.00 0.00 100
20260504221602 49 243 0.0 0.0 0.00 0.00 0.00 100
20260504214602 50 243 0.0 0.0 0.00 0.00 0.00 100
20260504213102 50 243 0.0 0.0 0.00 0.00 0.00 100
20260504211602 50 243 0.0 0.0 0.00 0.00 0.00 100
20260504204602 51 243 0.0 0.0 0.00 0.00 0.00 100
20260504203102 52 243 0.0 0.0 0.00 0.00 0.00 100
20260504201602 53 327 0.0 0.0 0.00 0.00 0.00 100
20260504194602 55 327 0.0 0.0 0.00 0.00 0.00 100
20260504193102 56 327 0.0 0.0 0.00 0.00 0.00 100
20260504191602 56 327 0.0 0.0 0.00 0.00 0.00 100
20260504184602 60 327 0.0 0.0 0.00 0.00 0.00 100
20260504183102 61 327 0.0 0.0 0.00 0.00 0.00 100
20260504181602 61 33 0.0 0.0 0.00 0.00 0.00 100
20260504174603 64 9 2.0 6.0 0.00 0.00 0.00 100
20260504173103 69 307 0.0 6.0 0.00 0.00 0.00 100
20260504171603 73 326 0.0 6.0 0.00 0.00 0.00 100
20260504150103 65 341 3.0 10.0 0.00 0.00 0.00 100
20260504140103 64 21 2.0 13.0 0.00 0.00 0.00 100
20260504130104 65 337 10.0 12.0 0.00 0.00 0.00 100
20260504120104 63 331 6.0 16.0 0.00 0.00 0.00 100
20260504110104 62 326 6.0 21.0 0.00 0.00 0.00 100
20260504100104 62 337 16.0 21.0 0.00 0.00 0.00 100
20260504090104 64 345 8.0 21.0 0.00 0.00 0.00 100
20260504081605 66 282 19.0 19.0 0.00 0.00 0.00 100
20260504080105 66 274 9.0 19.0 0.00 0.00 0.00 100
20260504070105 63 309 13.0 23.0 0.00 0.00 0.00 100
20260504060105 61 303 9.0 15.0 0.00 0.00 0.00 100
20260504050105 60 310 4.0 13.0 0.00 0.00 0.00 100
20260504044605 59 320 4.0 11.0 0.00 0.00 0.00 100
20260504043105 59 288 5.0 10.0 0.00 0.00 0.00 100
20260504041605 59 317 7.0 9.0 0.00 0.00 0.00 100
20260504040105 58 295 1.0 8.0 0.00 0.00 0.00 100
20260504034605 59 320 5.0 12.0 0.00 0.00 0.00 100
20260504033105 58 313 3.0 7.0 0.00 0.00 0.00 100
20260504031606 57 305 4.0 6.0 0.00 0.00 0.00 100
20260504030106 59 313 1.0 7.0 0.00 0.00 0.00 100
20260504024606 60 316 4.0 11.0 0.00 0.00 0.00 100
20260504023106 60 292 4.0 13.0 0.00 0.00 0.00 100
20260504021606 60 341 5.0 8.0 0.00 0.00 0.00 100
20260504020106 60 307 3.0 8.0 0.00 0.00 0.00 100